Pearl, MS

5:51 AM CDT on September 29, 2016 (GMT -0500)
Jackson-Evers International

Weather History for KJAN - November, 2014

Change the Weather History Date:

Sunday, November 9, 2014

  Actual Average Record
Temperature  
Mean Temperature 52 °F 58 °F  
Max Temperature 67 °F 70 °F 86 °F (1920)
Min Temperature 37 °F 46 °F 24 °F (1896)
Degree Days  
Heating Degree Days 13 8  
Month to date heating degree days 97 65  
Since 1 July heating degree days 160 172  
Cooling Degree Days 0 1  
Month to date cooling degree days 2 10  
Year to date cooling degree days 2280 2241  
Growing Degree Days 2 (Base 50)    
Moisture  
Dew Point 39 °F    
Average Humidity 67    
Maximum Humidity 100    
Minimum Humidity 34    
Precipitation  
Precipitation 0.00 in 0.15 in 1.83 in (1979)
Month to date precipitation 0.13 1.25  
Year to date precipitation 48.51 45.48  
Sea Level Pressure  
Sea Level Pressure 30.05 in    
Wind  
Wind Speed 2 mph (North)    
Max Wind Speed 12 mph    
Max Gust Speed 15 mph    
Visibility 9 miles    
Events      
T = Trace of Precipitation, MM = Missing Value Source: NWS Daily Summary

Daily Weather History Graph

Daily Weather History Graph

Search for Another Location

Airport or City:

Trip Planner

Search our weather history database for the weather conditions in past years. The results will help you decide how hot, cold, wet, or windy it might be!

Date:

Astronomy

Nov. 09, 2014 Rise Set
Actual Time 6:24 AM CST 5:03 PM CST
Civil Twilight 5:58 AM CST 5:29 PM CST
Nautical Twilight 5:29 AM CST 5:58 PM CST
Astronomical Twilight 5:00 AM CST 6:27 PM CST
Moon 7:39 PM CST (11/9) 8:53 AM CST (11/9)
Length of Visible Light 11h 30m
Length of Day
10h 39m
Waning Gibbous, 91% of the Moon is Illuminated
Nov 9
Waning Gibbous
Nov 14
Last Quarter
Nov 22
New
Nov 29
First Quarter
Dec 6
Full

Hourly Weather History & Observations

Time (CST) Temp. Windchill Dew Point Humidity Pressure Visibility Wind Dir Wind Speed Gust Speed Precip Events Conditions
12:54 AM 48.0 °F - 43.0 °F 83% 30.06 in 10.0 mi NNW 5.8 mph - N/A   Clear
1:54 AM 46.9 °F - 43.0 °F 86% 30.06 in 10.0 mi North 3.5 mph - N/A   Clear
2:54 AM 44.1 °F 40.8 °F 42.1 °F 93% 30.06 in 10.0 mi North 5.8 mph - N/A   Clear
3:54 AM 39.0 °F - 37.9 °F 96% 30.06 in 9.0 mi Calm Calm - N/A   Clear
4:12 AM 39.9 °F - 39.0 °F 97% 30.06 in 1.0 mi Calm Calm - N/A   Clear
4:23 AM 39.9 °F - 37.9 °F 93% 30.06 in 10.0 mi Calm Calm - N/A   Clear
4:54 AM 37.9 °F - 36.0 °F 93% 30.07 in 10.0 mi Calm Calm - N/A   Clear
5:31 AM 37.0 °F - 36.0 °F 96% 30.06 in 1.5 mi Calm Calm - N/A   Partly Cloudy
5:33 AM 37.0 °F - 36.0 °F 96% 30.07 in 0.8 mi Calm Calm - N/A   Mist
5:40 AM 37.0 °F - 36.0 °F 96% 30.07 in 0.8 mi Calm Calm - N/A   Mist
5:42 AM 37.9 °F - 37.0 °F 97% 30.08 in 10.0 mi Calm Calm - N/A   Clear
5:54 AM 37.9 °F 35.5 °F 37.0 °F 97% 30.07 in 10.0 mi South 3.5 mph - N/A   Clear
6:54 AM 37.9 °F - 37.0 °F 97% 30.11 in 10.0 mi Calm Calm - N/A   Clear
7:54 AM 46.9 °F - 44.1 °F 90% 30.13 in 10.0 mi Calm Calm - N/A   Clear
8:54 AM 55.0 °F - 43.0 °F 64% 30.13 in 10.0 mi NNE 4.6 mph - N/A   Clear
9:54 AM 59.0 °F - 39.9 °F 49% 30.12 in 10.0 mi NNE 6.9 mph - N/A   Clear
10:54 AM 60.1 °F - 39.0 °F 46% 30.11 in 10.0 mi North 9.2 mph - N/A   Clear
11:54 AM 62.1 °F - 37.9 °F 41% 30.08 in 10.0 mi North 6.9 mph - N/A   Clear
12:54 PM 64.9 °F - 39.0 °F 39% 30.04 in 10.0 mi Variable 4.6 mph - N/A   Clear
1:54 PM 66.0 °F - 37.0 °F 34% 30.01 in 10.0 mi North 4.6 mph - N/A   Clear
2:54 PM 66.0 °F - 37.9 °F 36% 29.99 in 10.0 mi NNW 3.5 mph - N/A   Clear
3:54 PM 66.0 °F - 37.9 °F 36% 29.99 in 10.0 mi Calm Calm - N/A   Clear
4:54 PM 59.0 °F - 42.1 °F 53% 30.00 in 10.0 mi Calm Calm - N/A   Clear
5:54 PM 50.0 °F - 42.1 °F 74% 30.00 in 10.0 mi Calm Calm - N/A   Clear
6:54 PM 48.0 °F - 41.0 °F 77% 30.01 in 10.0 mi Calm Calm - N/A   Clear
7:54 PM 45.0 °F - 39.9 °F 82% 30.01 in 10.0 mi Calm Calm - N/A   Clear
8:54 PM 44.1 °F - 39.0 °F 82% 30.01 in 10.0 mi Calm Calm - N/A   Clear
9:54 PM 43.0 °F - 39.0 °F 86% 30.01 in 10.0 mi Calm Calm - N/A   Clear
10:54 PM 39.9 °F - 37.9 °F 93% 30.01 in 10.0 mi Calm Calm - N/A   Clear
11:54 PM 39.0 °F - 37.0 °F 93% 30.00 in 10.0 mi Calm Calm - N/A   Clear